{"data":{"norad_id":47386,"intl_designator":"2021-005AP","name":"STARLINK-2106","alt_names":[],"object_type":"PAYLOAD","status":"ACTIVE","operator":null,"country":"US","launch_date":"2021-01-20","launch_site_code":"AFETR","launch_vehicle":null,"mission":null,"orbit_class":"UNKNOWN","rcs_meters":null,"size_class":null,"mass_kg":null,"dimensions":null,"purposes":["comms"],"wikipedia_slug":null,"has_3d_model":false,"image_url":null,"decayed_at":null,"tle_current":{"epoch":"2026-09-19T07:00:01.869984Z","epoch_age_seconds":130191,"freshness":"FRESH","line1":"1 47386U 21005AP  26262.29168831 -.00000220  00000+0  47004-5 0  9996","line2":"2 47386  53.1569 216.4560 0002324 112.7677 247.3570 15.31698909313045","mean_motion":15.31698909,"eccentricity":0.0002324,"inclination_deg":53.1569,"raan_deg":216.456,"arg_perigee_deg":112.7677,"mean_anomaly_deg":247.357,"bstar":4.7004e-6,"rev_number":31304,"period_min":94.013254924895,"perigee_km":469.1515676723,"apogee_km":472.33492721131,"semimajor_km":6848.8802474418,"source":"CELESTRAK","updated_at":"2026-09-20T09:00:38.593899Z"}}}